Location: Elko Observing site
(32.3606°N, 83.7235°W)
Time: 13:07:43
(UTC-04:00)

Hubble Space Telescope - Visible Passes

Search period start: 20 March 2019 00:00
Search period end: 30 March 2019 00:00
Orbit: 537 x 540 km, 28.5° (Epoch: 19 March)

Date Brightness Start Highest point End Pass type
(mag) Time Alt. Az. Time Alt. Az. Time Alt. Az.
21 Mar 3.3 21:31:49 10° SSW 21:31:58 11° SSW 21:31:58 11° SSW visible
22 Mar 2.7 21:20:46 10° SSW 21:22:33 17° S 21:22:33 17° S visible
23 Mar 2.2 21:09:54 10° SW 21:13:02 23° SSE 21:13:02 23° SSE visible
24 Mar 1.9 20:59:07 10° SW 21:02:38 27° SSE 21:03:28 25° SE visible
25 Mar 1.8 20:48:25 10° SW 20:52:06 31° SSE 20:53:49 22° ESE visible
25 Mar 3.8 22:29:01 10° WSW 22:29:10 11° WSW 22:29:10 11° WSW visible
26 Mar 1.6 20:37:46 10° SW 20:41:33 36° SSE 20:44:06 18° ESE visible
26 Mar 3.4 22:18:30 10° WSW 22:19:27 16° WSW 22:19:27 16° WSW visible
27 Mar 1.5 20:27:09 10° WSW 20:31:02 40° S 20:34:20 13° ESE visible
27 Mar 2.9 22:08:01 10° WSW 22:09:41 22° WSW 22:09:41 22° WSW visible
28 Mar 1.4 20:16:35 10° WSW 20:20:31 44° S 20:24:28 10° E visible
28 Mar 2.4 21:57:32 10° W 21:59:53 29° WSW 21:59:53 29° WSW visible
29 Mar 1.9 21:47:04 10° W 21:50:02 36° SW 21:50:02 36° SW visible
